Tracking 20037 objects as of 17-Nov-2019
Live streaming from Space Station
objects crossing your sky now

COSMOS 1287

Track COSMOS 1287 now!
10-day predictions
COSMOS 1287 is classified as:


NORAD ID: 12636
Int'l Code: 1981-074A
Perigee: 1,471.2 km
Apogee: 1,519.8 km
Inclination: 74.0 °
Period: 115.7 minutes
Semi major axis: 7866 km
RCS: 0.667 m2 (medium)
Launch date: August 6, 1981
Source: Commonwealth of Independent States (former USSR) (CIS)
Launch site: PLESETSK MISSILE AND SPACE COMPLEX (PKMTR)
aabbcc
Your satellite tracking list
Your tracking list is empty




NASA's NSSDC Master Catalog

Two Line Element Set (TLE):
1 12636U 81074A   19320.87916548 -.00000023 +00000-0 -50832-4 0  9990
2 12636 074.0306 124.4424 0030877 345.8577 014.1603 12.44315446739340
Source of the keplerian elements: AFSPC